Location: Olsztyn
(53.7767°N, 20.4765°E)
Time: 07:44:28
(UTC+01:00)

Transit 4A - Pass Details

Date: 10 October 2022
Orbit: 871 x 972 km, 66.8° (Epoch: 06 December)

Event Time Altitude Azimuth Distance (km) Brightness Sun altitude
Exits shadow 05:03:04 - 318° (NW) 3,361 10.5 -17.4°
Reaches altitude 10° 05:05:12 10° 319° (NW) 2,554 9.9 -17.1°
Maximum altitude 05:11:07 88° 49° (NE) 883 7.8 -16.2°
Drops below altitude 10° 05:16:57 10° 140° (SE) 2,517 10.6 -15.4°
Sets 05:19:25 0° 141° (SE) 3,453 11.3 -15.0°
